Weather History for McConnell AFB, KS

Change the Weather History Date:

Monday, October 8, 2012

  Actual Average Record
Temperature  
Mean Temperature 50 °F -  
Max Temperature 67 °F 70 °F 88 °F (2010)
Min Temperature 33 °F 49 °F 28 °F (2000)
Degree Days  
Heating Degree Days 15    
Moisture  
Dew Point 32 °F    
Average Humidity 53    
Maximum Humidity 85    
Minimum Humidity 25    
Precipitation  
Precipitation 0.00 in - - ()
Sea Level Pressure  
Sea Level Pressure 30.08 in    
Wind  
Wind Speed 12 mph (South)    
Max Wind Speed 21 mph    
Max Gust Speed 26 mph    
Visibility 10 miles    
Events      
Averages and records for this station are not official NWS values.
T = Trace of Precipitation, MM = Missing Value Source: NWS Daily Summary

Daily Weather History Graph

Daily Weather History Graph

Search for Another Location

Airport:

Trip Planner

Search our weather history database for the weather conditions in past years. The results will help you decide how hot, cold, wet, or windy it might be!

Date:

Astronomy

Oct. 08, 2012 Rise Set
Actual Time 7:31 AM CDT 7:00 PM CDT
Civil Twilight 7:05 AM CDT 7:27 PM CDT
Nautical Twilight 6:34 AM CDT 7:57 PM CDT
Astronomical Twilight 6:04 AM CDT 8:27 PM CDT
Moon 12:19 AM CDT (10/8) 2:44 PM CDT (10/8)
Length of Visible Light 12h 22m
Length of Day
11h 29m
Last Quarter, 46% of the Moon is Illuminated
Oct 8
Last Quarter
Oct 15
New
Oct 21
First Quarter
Oct 29
Full
Nov 6
Last Quarter

Hourly Weather History & Observations

Time (CDT) Temp. Windchill Dew Point Humidity Pressure Visibility Wind Dir Wind Speed Gust Speed Precip Events Conditions
12:55 AM 40.5 °F 34.1 °F 28.0 °F 61% 30.18 in 10.0 mi SW 10.4 mph - N/A   Clear
1:55 AM 40.1 °F 35.3 °F 28.6 °F 63% 30.19 in 10.0 mi SW 6.9 mph - N/A   Clear
2:55 AM 39.2 °F 34.2 °F 28.9 °F 67% 30.18 in 10.0 mi SW 6.9 mph - N/A   Clear
3:55 AM 36.7 °F 31.2 °F 29.1 °F 74% 30.16 in 10.0 mi SSW 6.9 mph - N/A   Clear
4:55 AM 34.7 °F 28.8 °F 29.5 °F 81% 30.16 in 10.0 mi SSW 6.9 mph - N/A   Clear
5:55 AM 33.4 °F 27.3 °F 29.3 °F 85% 30.16 in 10.0 mi SSW 6.9 mph - N/A   Clear
6:55 AM 33.6 °F 26.8 °F 29.5 °F 85% 30.16 in 10.0 mi SSW 8.1 mph - N/A   Clear
7:55 AM 34.7 °F 26.9 °F 30.6 °F 85% 30.15 in 10.0 mi South 10.4 mph - N/A   Clear
8:55 AM 40.1 °F 32.4 °F 31.1 °F 70% 30.15 in 10.0 mi South 13.8 mph - N/A   Clear
9:55 AM 46.8 °F - 31.5 °F 55% 30.14 in 10.0 mi South 16.1 mph - N/A   Clear
10:55 AM 52.2 °F - 32.7 °F 48% 30.14 in 10.0 mi South 11.5 mph - N/A   Clear
11:55 AM 57.4 °F - 32.9 °F 40% 30.12 in 10.0 mi SSW 17.3 mph - N/A   Clear
12:55 PM 61.3 °F - 32.9 °F 34% 30.09 in 10.0 mi South 19.6 mph 24.2 mph N/A   Clear
1:55 PM 63.7 °F - 32.2 °F 31% 30.05 in 10.0 mi South 18.4 mph 26.5 mph N/A   Clear
2:55 PM 66.0 °F - 32.4 °F 29% 30.01 in 10.0 mi South 18.4 mph 26.5 mph N/A   Clear
3:55 PM 67.6 °F - 30.9 °F 25% 29.99 in 10.0 mi South 17.3 mph 23.0 mph N/A   Clear
4:55 PM 66.7 °F - 29.8 °F 25% 29.97 in 10.0 mi South 17.3 mph 26.5 mph N/A   Clear
5:55 PM 65.1 °F - 31.3 °F 28% 29.96 in 10.0 mi South 20.7 mph 26.5 mph N/A   Clear
6:55 PM 61.0 °F - 32.7 °F 35% 29.97 in 10.0 mi South 17.3 mph - N/A   Clear
7:55 PM 57.7 °F - 35.1 °F 43% 29.99 in 10.0 mi South 11.5 mph - N/A   Clear
8:55 PM 55.4 °F - 34.7 °F 46% 30.00 in 10.0 mi South 13.8 mph - N/A   Clear
9:55 PM 54.0 °F - 34.9 °F 49% 29.99 in 10.0 mi South 13.8 mph - N/A   Clear
10:55 PM 52.3 °F - 34.7 °F 51% 29.99 in 10.0 mi South 12.7 mph - N/A   Clear
11:55 PM 50.5 °F - 35.1 °F 55% 29.99 in 10.0 mi SSE 11.5 mph - N/A   Clear